TimeEST,TemperatureF,Dew PointF,Humidity,Sea Level PressureIn,VisibilityMPH,Wind Direction,Wind SpeedMPH,Gust SpeedMPH,PrecipitationIn,Events,Conditions,WindDirDegrees,DateUTC
12:45 AM,39.2,35.6,87,29.79,5.0,NE,31.1,47.2,0.00,Rain,Light Rain,40,2013-03-07 05:45:00
12:53 AM,39.0,36.0,89,29.78,4.0,NE,33.4,50.6,0.01,Rain,Light Rain,40,2013-03-07 05:53:00
1:53 AM,39.0,36.0,89,29.75,5.0,NNE,34.5,51.8,0.03,Rain,Light Rain,30,2013-03-07 06:53:00
2:19 AM,37.4,35.6,93,29.75,3.0,NE,40.3,59.8,0.08,Rain,Rain,40,2013-03-07 07:19:00
2:53 AM,39.0,36.0,89,29.75,5.0,NNE,33.4,50.6,0.15,Rain,Light Rain,30,2013-03-07 07:53:00
3:53 AM,39.0,36.0,89,29.75,5.0,NE,32.2,51.8,0.10,Rain,Light Rain,40,2013-03-07 08:53:00
4:53 AM,39.0,36.0,89,29.75,5.0,NNE,41.4,54.1,0.11,Rain,Light Rain,30,2013-03-07 09:53:00
5:53 AM,37.9,36.0,93,29.75,3.0,NNE,40.3,54.1,0.16,Rain,Rain,30,2013-03-07 10:53:00
6:53 AM,37.9,35.1,89,29.75,4.0,NNE,35.7,58.7,0.19,Rain-Snow,Rain,30,2013-03-07 11:53:00
7:53 AM,39.0,36.0,89,29.75,4.0,NNE,40.3,55.2,0.11,Rain,Rain,30,2013-03-07 12:53:00
7:55 AM,39.2,35.6,87,29.75,3.0,NNE,44.9,55.2,0.00,Rain,Rain,20,2013-03-07 12:55:00
8:53 AM,39.0,36.0,89,29.76,3.0,NNE,41.4,59.8,0.12,Rain,Rain,30,2013-03-07 13:53:00
9:53 AM,39.0,36.0,89,29.75,3.0,NNE,43.7,63.3,0.10,Rain,Light Rain,20,2013-03-07 14:53:00
10:53 AM,37.9,36.0,93,29.75,3.0,NNE,39.1,57.5,0.06,Rain,Light Rain,20,2013-03-07 15:53:00
11:53 AM,37.9,35.1,89,29.76,3.0,NNE,39.1,51.8,0.07,Rain,Light Rain,20,2013-03-07 16:53:00
1:53 PM,37.0,34.0,89,29.75,2.0,NNE,40.3,56.4,0.12,Rain,Rain,30,2013-03-07 18:53:00
2:53 PM,35.1,33.1,92,29.76,2.0,NNE,33.4,51.8,0.13,Rain,Rain,20,2013-03-07 19:53:00
3:00 PM,33.8,32.0,93,29.76,1.2,NNE,36.8,51.8,0.01,Rain,Rain,20,2013-03-07 20:00:00
3:30 PM,35.6,33.8,93,29.76,2.5,North,35.7,50.6,0.06,Rain,Rain,10,2013-03-07 20:30:00
3:53 PM,35.1,34.0,96,29.77,1.5,NNE,41.4,52.9,0.07,Snow,Light Snow,20,2013-03-07 20:53:00
4:22 PM,35.6,33.8,93,29.76,0.8,North,33.4,44.9,0.06,Snow,Light Snow,10,2013-03-07 21:22:00
4:29 PM,35.6,33.8,93,29.76,1.0,North,33.4,43.7,0.07,Snow,Light Snow,10,2013-03-07 21:29:00
4:53 PM,36.0,35.1,97,29.77,1.2,NNE,32.2,48.3,0.11,Snow,Light Snow,20,2013-03-07 21:53:00
5:22 PM,35.6,35.6,100,29.79,2.0,NNE,36.8,46.0,0.04,Snow,Light Snow,20,2013-03-07 22:22:00
5:53 PM,36.0,35.1,97,29.80,2.0,NNE,35.7,49.5,0.08,Snow,Light Snow,20,2013-03-07 22:53:00
6:53 PM,37.0,35.1,93,29.81,2.5,NNE,38.0,49.5,0.06,Snow,Light Snow,20,2013-03-07 23:53:00
7:53 PM,37.0,36.0,96,29.81,2.0,NNE,35.7,46.0,0.05,Snow,Light Snow,20,2013-03-08 00:53:00
8:24 PM,37.4,35.6,93,29.81,1.8,NNE,32.2,51.8,0.02,Snow,Light Snow,20,2013-03-08 01:24:00
8:45 PM,37.4,35.6,93,29.81,2.0,NNE,38.0,47.2,0.04,Snow,Light Snow,30,2013-03-08 01:45:00
8:53 PM,37.0,35.1,93,29.81,2.0,NNE,40.3,49.5,0.05,Snow,Light Snow,30,2013-03-08 01:53:00
9:19 PM,37.4,35.6,93,29.80,3.0,NNE,33.4,48.3,0.04,Rain,Rain,30,2013-03-08 02:19:00
9:53 PM,37.9,35.1,89,29.80,5.0,NNE,35.7,47.2,0.07,Rain,Light Rain,30,2013-03-08 02:53:00
10:36 PM,37.4,35.6,93,29.79,2.5,NNE,34.5,44.9,0.01,Snow,Light Snow,20,2013-03-08 03:36:00
10:53 PM,37.0,35.1,93,29.79,2.5,NNE,31.1,48.3,0.02,Rain,Light Rain,20,2013-03-08 03:53:00
11:01 PM,37.4,35.6,93,29.79,3.0,NNE,33.4,41.4,0.01,Rain,Light Rain,20,2013-03-08 04:01:00
11:35 PM,37.4,35.6,93,29.78,3.0,NNE,28.8,43.7,0.04,Snow,Light Snow,20,2013-03-08 04:35:00